Time,TemperatureF,DewpointF,PressureIn,WindDirection,WindDirectionDegrees,WindSpeedMPH,WindSpeedGustMPH,Humidity,HourlyPrecipIn,Conditions,Clouds,dailyrainin,SoftwareType,DateUTC
2013-10-26 00:00:00,43.0,31.7,30.08,ESE,113,0.0,0.0,64,0.00,,,0.00,WUHU216HW,2013-10-26 05:00:00,
2013-10-26 00:05:00,43.0,31.7,30.08,ESE,113,0.0,0.0,64,0.00,,,0.00,WUHU216HW,2013-10-26 05:05:00,
2013-10-26 00:30:00,42.5,31.5,30.06,SSE,158,0.4,0.4,65,0.00,,,0.00,WUHU216HW,2013-10-26 05:30:00,
2013-10-26 00:35:00,42.5,31.5,30.06,SSE,158,0.4,0.4,65,0.00,,,0.00,WUHU216HW,2013-10-26 05:35:00,
2013-10-26 01:00:00,41.9,31.8,30.06,East,90,0.4,0.4,67,0.00,,,0.00,WUHU216HW,2013-10-26 06:00:00,
2013-10-26 01:05:00,41.9,31.8,30.06,East,90,0.4,0.4,67,0.00,,,0.00,WUHU216HW,2013-10-26 06:05:00,
2013-10-26 01:30:00,41.4,31.2,30.06,ESE,113,0.0,0.0,67,0.00,,,0.00,WUHU216HW,2013-10-26 06:30:00,
2013-10-26 01:35:00,41.4,31.2,30.06,ESE,113,0.0,0.0,67,0.00,,,0.00,WUHU216HW,2013-10-26 06:35:00,
2013-10-26 02:00:00,40.7,31.0,30.06,SE,135,0.0,0.0,68,0.00,,,0.00,WUHU216HW,2013-10-26 07:00:00,
2013-10-26 02:05:00,40.7,31.0,30.06,SE,135,0.0,0.0,68,0.00,,,0.00,WUHU216HW,2013-10-26 07:05:00,
2013-10-26 02:30:00,40.5,31.2,30.06,SE,135,0.0,0.0,69,0.00,,,0.00,WUHU216HW,2013-10-26 07:30:00,
2013-10-26 02:35:00,40.5,31.2,30.06,SE,135,0.0,0.0,69,0.00,,,0.00,WUHU216HW,2013-10-26 07:35:00,
2013-10-26 02:59:00,40.1,31.5,30.06,SE,135,0.0,0.0,71,0.00,,,0.00,WUHU216HW,2013-10-26 07:59:00,
2013-10-26 03:04:00,40.1,31.5,30.06,SE,135,0.0,0.0,71,0.00,,,0.00,WUHU216HW,2013-10-26 08:04:00,
2013-10-26 03:30:00,40.1,31.5,30.05,SE,135,0.0,0.0,71,0.00,,,0.00,WUHU216HW,2013-10-26 08:30:00,
2013-10-26 03:35:00,40.1,31.5,30.05,SE,135,0.0,0.0,71,0.00,,,0.00,WUHU216HW,2013-10-26 08:35:00,
2013-10-26 03:59:00,40.3,32.3,30.04,ESE,113,0.0,0.0,73,0.00,,,0.00,WUHU216HW,2013-10-26 08:59:00,
2013-10-26 04:04:00,40.3,32.3,30.04,ESE,113,0.0,0.0,73,0.00,,,0.00,WUHU216HW,2013-10-26 09:04:00,
2013-10-26 04:30:00,40.1,32.5,30.04,ESE,113,0.2,0.2,74,0.00,,,0.00,WUHU216HW,2013-10-26 09:30:00,
2013-10-26 04:35:00,40.1,32.5,30.04,ESE,113,0.2,0.2,74,0.00,,,0.00,WUHU216HW,2013-10-26 09:35:00,
2013-10-26 04:59:00,40.3,32.7,30.03,ESE,113,0.0,0.0,74,0.00,,,0.00,WUHU216HW,2013-10-26 09:59:00,
2013-10-26 05:04:00,40.3,32.7,30.03,ESE,113,0.0,0.0,74,0.00,,,0.00,WUHU216HW,2013-10-26 10:04:00,
2013-10-26 05:30:00,40.3,32.9,30.03,SSE,158,0.0,0.0,75,0.00,,,0.00,WUHU216HW,2013-10-26 10:30:00,
2013-10-26 05:35:00,40.3,32.9,30.03,SSE,158,0.0,0.0,75,0.00,,,0.00,WUHU216HW,2013-10-26 10:35:00,
2013-10-26 05:59:00,40.5,33.1,30.03,West,270,0.4,0.4,75,0.00,,,0.00,WUHU216HW,2013-10-26 10:59:00,
2013-10-26 06:04:00,40.5,33.1,30.03,West,270,0.4,0.4,75,0.00,,,0.00,WUHU216HW,2013-10-26 11:04:00,
2013-10-26 06:30:00,40.7,33.7,30.03,SE,135,0.2,0.2,76,0.00,,,0.00,WUHU216HW,2013-10-26 11:30:00,
2013-10-26 06:35:00,40.7,33.7,30.03,SE,135,0.2,0.2,76,0.00,,,0.00,WUHU216HW,2013-10-26 11:35:00,
2013-10-26 06:59:00,40.7,33.9,30.03,ESE,113,0.0,0.0,77,0.00,,,0.00,WUHU216HW,2013-10-26 11:59:00,
2013-10-26 07:04:00,40.7,33.9,30.03,ESE,113,0.0,0.0,77,0.00,,,0.00,WUHU216HW,2013-10-26 12:04:00,
2013-10-26 07:30:00,40.7,34.7,30.02,ESE,113,0.4,0.4,79,0.00,,,0.00,WUHU216HW,2013-10-26 12:30:00,
2013-10-26 07:35:00,40.7,34.7,30.02,ESE,113,0.4,0.4,79,0.00,,,0.00,WUHU216HW,2013-10-26 12:35:00,
2013-10-26 07:59:00,41.6,35.8,30.02,ESE,113,0.0,0.0,80,0.00,,,0.00,WUHU216HW,2013-10-26 12:59:00,
2013-10-26 08:04:00,41.6,35.8,30.02,ESE,113,0.0,0.0,80,0.00,,,0.00,WUHU216HW,2013-10-26 13:04:00,
2013-10-26 08:30:00,43.2,37.1,30.03,ESE,113,0.0,0.0,79,0.00,,,0.00,WUHU216HW,2013-10-26 13:30:00,
2013-10-26 08:35:00,43.2,37.1,30.03,ESE,113,0.0,0.0,79,0.00,,,0.00,WUHU216HW,2013-10-26 13:35:00,
2013-10-26 08:59:00,45.5,39.4,30.03,SW,225,0.4,0.4,79,0.00,,,0.00,WUHU216HW,2013-10-26 13:59:00,
2013-10-26 09:04:00,45.5,39.4,30.03,SW,225,0.4,0.4,79,0.00,,,0.00,WUHU216HW,2013-10-26 14:04:00,
2013-10-26 09:30:00,47.7,41.5,30.02,SW,225,0.4,0.4,79,0.00,,,0.00,WUHU216HW,2013-10-26 14:30:00,
2013-10-26 09:35:00,47.7,41.5,30.02,SW,225,0.4,0.4,79,0.00,,,0.00,WUHU216HW,2013-10-26 14:35:00,
2013-10-26 09:59:00,50.0,44.1,30.02,SW,225,0.4,0.4,80,0.00,,,0.00,WUHU216HW,2013-10-26 14:59:00,
2013-10-26 10:05:00,50.0,44.1,30.02,SW,225,0.4,0.4,80,0.00,,,0.00,WUHU216HW,2013-10-26 15:05:00,
2013-10-26 10:30:00,54.5,47.1,30.02,WSW,248,1.8,1.8,76,0.00,,,0.00,WUHU216HW,2013-10-26 15:30:00,
2013-10-26 10:35:00,54.5,47.1,30.02,WSW,248,1.8,1.8,76,0.00,,,0.00,WUHU216HW,2013-10-26 15:35:00,
2013-10-26 10:59:00,55.4,48.0,30.02,WSW,248,0.4,0.4,76,0.00,,,0.00,WUHU216HW,2013-10-26 15:59:00,
2013-10-26 11:05:00,55.4,48.0,30.02,WSW,248,0.4,0.4,76,0.00,,,0.00,WUHU216HW,2013-10-26 16:05:00,
2013-10-26 11:30:00,56.5,48.6,30.02,SW,225,0.0,0.0,75,0.00,,,0.00,WUHU216HW,2013-10-26 16:30:00,
2013-10-26 11:35:00,56.5,48.6,30.02,SW,225,0.0,0.0,75,0.00,,,0.00,WUHU216HW,2013-10-26 16:35:00,
2013-10-26 11:59:00,56.7,49.1,30.01,WSW,248,0.2,0.2,76,0.00,,,0.00,WUHU216HW,2013-10-26 16:59:00,
2013-10-26 12:05:00,56.7,49.1,30.01,WSW,248,0.2,0.2,76,0.00,,,0.00,WUHU216HW,2013-10-26 17:05:00,
2013-10-26 12:30:00,57.1,49.1,30.01,SSW,203,2.0,2.0,75,0.00,,,0.00,WUHU216HW,2013-10-26 17:30:00,
2013-10-26 12:35:00,57.1,49.1,30.01,SSW,203,2.0,2.0,75,0.00,,,0.00,WUHU216HW,2013-10-26 17:35:00,
2013-10-26 13:00:00,58.7,50.0,30.01,WSW,248,1.6,1.6,73,0.00,,,0.00,WUHU216HW,2013-10-26 18:00:00,
2013-10-26 13:05:00,58.7,50.0,30.01,WSW,248,1.6,1.6,73,0.00,,,0.00,WUHU216HW,2013-10-26 18:05:00,
2013-10-26 13:30:00,60.7,50.5,29.99,SSW,203,2.5,2.5,69,0.00,,,0.00,WUHU216HW,2013-10-26 18:30:00,
2013-10-26 13:35:00,60.7,50.5,29.99,SSW,203,2.5,2.5,69,0.00,,,0.00,WUHU216HW,2013-10-26 18:35:00,
2013-10-26 14:00:00,60.1,50.8,29.98,NW,315,3.4,3.4,71,0.00,,,0.00,WUHU216HW,2013-10-26 19:00:00,
2013-10-26 14:05:00,60.1,50.8,29.98,NW,315,3.4,3.4,71,0.00,,,0.00,WUHU216HW,2013-10-26 19:05:00,
2013-10-26 14:30:00,62.3,52.0,29.97,South,180,2.7,2.7,69,0.00,,,0.00,WUHU216HW,2013-10-26 19:30:00,
2013-10-26 14:35:00,62.3,52.0,29.97,South,180,2.7,2.7,69,0.00,,,0.00,WUHU216HW,2013-10-26 19:35:00,
2013-10-26 15:00:00,63.5,52.4,29.96,North,0,3.4,3.4,67,0.00,,,0.00,WUHU216HW,2013-10-26 20:00:00,
2013-10-26 15:05:00,63.5,52.4,29.96,North,0,3.4,3.4,67,0.00,,,0.00,WUHU216HW,2013-10-26 20:05:00,
2013-10-26 15:30:00,63.7,51.7,29.95,WSW,248,4.0,4.0,65,0.00,,,0.00,WUHU216HW,2013-10-26 20:30:00,
2013-10-26 15:35:00,63.7,51.7,29.95,WSW,248,4.0,4.0,65,0.00,,,0.00,WUHU216HW,2013-10-26 20:35:00,
2013-10-26 15:59:00,63.2,50.8,29.96,NW,315,1.3,1.3,64,0.00,,,0.00,WUHU216HW,2013-10-26 20:59:00,
2013-10-26 16:04:00,63.2,50.8,29.96,NW,315,1.3,1.3,64,0.00,,,0.00,WUHU216HW,2013-10-26 21:04:00,
2013-10-26 16:30:00,63.0,51.0,29.97,NNW,338,2.5,2.5,65,0.00,,,0.00,WUHU216HW,2013-10-26 21:30:00,
2013-10-26 16:35:00,63.0,51.0,29.97,NNW,338,2.5,2.5,65,0.00,,,0.00,WUHU216HW,2013-10-26 21:35:00,
2013-10-26 16:59:00,62.6,50.7,29.96,North,0,2.5,2.5,65,0.00,,,0.00,WUHU216HW,2013-10-26 21:59:00,
2013-10-26 17:05:00,62.6,50.7,29.96,North,0,2.5,2.5,65,0.00,,,0.00,WUHU216HW,2013-10-26 22:05:00,
2013-10-26 17:30:00,60.7,49.7,29.98,West,270,1.8,1.8,67,0.00,,,0.00,WUHU216HW,2013-10-26 22:30:00,
2013-10-26 17:35:00,60.7,49.7,29.98,West,270,1.8,1.8,67,0.00,,,0.00,WUHU216HW,2013-10-26 22:35:00,
2013-10-26 17:59:00,59.8,49.6,29.97,SW,225,0.7,0.7,69,0.00,,,0.00,WUHU216HW,2013-10-26 22:59:00,
2013-10-26 18:05:00,59.8,49.6,29.97,SW,225,0.7,0.7,69,0.00,,,0.00,WUHU216HW,2013-10-26 23:05:00,
2013-10-26 18:30:00,59.0,49.3,29.97,WSW,248,0.0,0.0,70,0.00,,,0.00,WUHU216HW,2013-10-26 23:30:00,
2013-10-26 18:35:00,59.0,49.3,29.97,WSW,248,0.0,0.0,70,0.00,,,0.00,WUHU216HW,2013-10-26 23:35:00,
2013-10-26 18:59:00,58.0,49.0,29.98,WSW,248,0.0,0.0,72,0.00,,,0.00,WUHU216HW,2013-10-26 23:59:00,
2013-10-26 19:04:00,58.0,49.0,29.98,WSW,248,0.0,0.0,72,0.00,,,0.00,WUHU216HW,2013-10-27 00:04:00,
2013-10-26 19:30:00,57.1,48.4,30.00,WSW,248,0.0,0.0,73,0.00,,,0.00,WUHU216HW,2013-10-27 00:30:00,
2013-10-26 19:35:00,57.1,48.4,30.00,WSW,248,0.0,0.0,73,0.00,,,0.00,WUHU216HW,2013-10-27 00:35:00,
2013-10-26 19:59:00,55.4,47.6,29.99,WSW,248,0.0,0.0,75,0.00,,,0.00,WUHU216HW,2013-10-27 00:59:00,
2013-10-26 20:04:00,55.4,47.6,29.99,WSW,248,0.0,0.0,75,0.00,,,0.00,WUHU216HW,2013-10-27 01:04:00,
2013-10-26 20:30:00,54.2,46.8,29.99,WSW,248,0.0,0.0,76,0.00,,,0.00,WUHU216HW,2013-10-27 01:30:00,
2013-10-26 20:35:00,54.2,46.8,29.99,WSW,248,0.0,0.0,76,0.00,,,0.00,WUHU216HW,2013-10-27 01:35:00,
2013-10-26 20:59:00,53.6,47.0,29.99,WSW,248,0.0,0.0,78,0.00,,,0.00,WUHU216HW,2013-10-27 01:59:00,
2013-10-26 21:05:00,53.6,47.0,29.99,WSW,248,0.0,0.0,78,0.00,,,0.00,WUHU216HW,2013-10-27 02:05:00,
2013-10-26 21:30:00,52.4,46.1,29.99,North,0,0.0,0.0,79,0.00,,,0.00,WUHU216HW,2013-10-27 02:30:00,
2013-10-26 21:35:00,52.4,46.1,29.99,North,0,0.0,0.0,79,0.00,,,0.00,WUHU216HW,2013-10-27 02:35:00,
2013-10-26 21:59:00,51.3,45.6,29.99,NNE,23,0.0,0.0,81,0.00,,,0.00,WUHU216HW,2013-10-27 02:59:00,
2013-10-26 22:04:00,51.3,45.6,29.99,NNE,23,0.0,0.0,81,0.00,,,0.00,WUHU216HW,2013-10-27 03:04:00,
2013-10-26 22:30:00,50.8,44.1,30.00,North,0,0.0,0.0,78,0.00,,,0.00,WUHU216HW,2013-10-27 03:30:00,
2013-10-26 22:35:00,50.8,44.1,30.00,North,0,0.0,0.0,78,0.00,,,0.00,WUHU216HW,2013-10-27 03:35:00,
2013-10-26 22:59:00,49.5,42.6,30.00,NNE,23,0.0,0.0,77,0.00,,,0.00,WUHU216HW,2013-10-27 03:59:00,
2013-10-26 23:01:00,49.5,42.6,30.00,NNE,23,0.0,0.0,77,0.00,,,0.00,WUHU216HW,2013-10-27 04:01:00,
2013-10-26 23:02:00,49.5,42.6,30.00,NNE,23,0.0,0.0,77,0.00,,,0.00,WUHU216HW,2013-10-27 04:02:00,
2013-10-26 23:07:00,49.5,42.6,30.00,NNE,23,0.0,0.0,77,0.00,,,0.00,WUHU216HW,2013-10-27 04:07:00,
2013-10-26 23:30:00,48.1,41.5,30.00,NNE,23,0.0,0.0,78,0.00,,,0.00,WUHU216HW,2013-10-27 04:30:00,
2013-10-26 23:35:00,48.1,41.5,30.00,NNE,23,0.0,0.0,78,0.00,,,0.00,WUHU216HW,2013-10-27 04:35:00,
2013-10-26 23:59:00,47.3,40.5,30.00,North,0,0.0,0.0,77,0.00,,,0.00,WUHU216HW,2013-10-27 04:59:00,